Estación de Contra Coronel

Ultimos registro cada 15 minutos 71
Estación Fecha / Hora Temperatura Humedad Lluvia Velocidad Dirección Radiación Presion
71 Contra Coronel 06-09-2026 18:30 15,9 38,7 0 0 191 151,9 1010,6
70 Contra Coronel 06-09-2026 18:15 15,7 42 0 1 184 193,1 1010,5
69 Contra Coronel 06-09-2026 18:00 15,8 38,1 0 1,3 192 234,4 1010,5
68 Contra Coronel 06-09-2026 17:45 15,9 36,9 0 1,3 161 275,6 1010,5
67 Contra Coronel 06-09-2026 17:30 15,9 40,6 0 1,3 153 315,6 1010,5
66 Contra Coronel 06-09-2026 17:15 16 38,5 0 1,7 152 354,4 1010,6
65 Contra Coronel 06-09-2026 17:00 16 35,8 0 1,7 128 393,1 1010,7
64 Contra Coronel 06-09-2026 16:45 16 36,5 0 1,3 147 428,1 1010,8
63 Contra Coronel 06-09-2026 16:30 15,8 39,4 0 1,3 154 461,9 1010,8
62 Contra Coronel 06-09-2026 16:15 16 40,1 0 1,3 157 491,9 1011,1
61 Contra Coronel 06-09-2026 16:00 15,8 40,7 0 1,7 166 519,4 1011,2
60 Contra Coronel 06-09-2026 15:45 16 36,5 0 1 149 546,9 1011,5
59 Contra Coronel 06-09-2026 15:30 15,6 35,1 0 1 157 571,9 1011,7
58 Contra Coronel 06-09-2026 15:15 15,8 35 0 0,7 240 593,1 1011,8
57 Contra Coronel 06-09-2026 15:00 15,4 35,5 0 1,3 355 606,9 1011,9
56 Contra Coronel 06-09-2026 14:45 14,9 38,2 0 1,7 153 620,6 1012,2
55 Contra Coronel 06-09-2026 14:30 15,2 39,6 0 1 194 633,1 1012,5
54 Contra Coronel 06-09-2026 14:15 14,4 40,3 0 1,3 178 640,6 1012,7
53 Contra Coronel 06-09-2026 14:00 14,9 36,9 0 0,7 219 644,4 1013,1
52 Contra Coronel 06-09-2026 13:45 14,2 42,3 0 1 219 645,6 1013,3
51 Contra Coronel 06-09-2026 13:30 14 35,9 0 1,3 213 643,1 1013,8
50 Contra Coronel 06-09-2026 13:15 13,2 41,3 0 2,3 185 635,6 1014
49 Contra Coronel 06-09-2026 13:00 14 39,1 0 1 271 629,4 1014,3
48 Contra Coronel 06-09-2026 12:45 13,3 42,5 0 1,3 279 614,4 1014,5
47 Contra Coronel 06-09-2026 12:30 12,9 40,6 0 1,3 275 600,6 1014,8
46 Contra Coronel 06-09-2026 12:15 12,5 46,7 0 0,7 261 581,9 1015
45 Contra Coronel 06-09-2026 12:00 11,8 47,1 0 0,3 274 559,4 1015,2
44 Contra Coronel 06-09-2026 11:45 10,6 53,6 0 0,7 234 530,6 1015,4
43 Contra Coronel 06-09-2026 11:30 9,6 57,1 0 0,7 199 504,4 1015,5
42 Contra Coronel 06-09-2026 11:15 8,6 60,6 0 1 185 473,1 1015,7
41 Contra Coronel 06-09-2026 11:00 7,8 61,1 0 1,3 192 438,1 1015,9
40 Contra Coronel 06-09-2026 10:45 8,3 60,3 0 0,3 256 403,1 1015,9
39 Contra Coronel 06-09-2026 10:30 7,6 65,1 0 0,7 197 365,6 1016,2
38 Contra Coronel 06-09-2026 10:15 7,3 61 0 0,7 263 328,1 1016,2
37 Contra Coronel 06-09-2026 10:00 7,1 66,5 0 0,3 244 289,4 1016,4
36 Contra Coronel 06-09-2026 09:45 6,1 70,5 0 0,3 254 248,1 1016,4
35 Contra Coronel 06-09-2026 09:30 4,4 78,7 0 0 327 208,1 1016,3
34 Contra Coronel 06-09-2026 09:15 2,1 88,7 0 0,3 6 165,6 1016,3
33 Contra Coronel 06-09-2026 09:00 1,6 88,6 0 0,3 331 126,9 1016,2
32 Contra Coronel 06-09-2026 08:45 0,5 89,3 0 0 331 88,1 1016,3
31 Contra Coronel 06-09-2026 08:30 -1,1 96,1 0 0 254 29,4 1016,5
30 Contra Coronel 06-09-2026 08:15 -1,9 96 0 0 261 6,9 1016,5
29 Contra Coronel 06-09-2026 08:00 -2,2 95,4 0 0 343 1,9 1016,6
28 Contra Coronel 06-09-2026 07:45 -2,2 91,1 0 0 4 0,6 1016,7
27 Contra Coronel 06-09-2026 07:30 -1 90,3 0 0,3 357 0,6 1017
26 Contra Coronel 06-09-2026 07:15 0,1 84 0 0,3 291 0,6 1017,2
25 Contra Coronel 06-09-2026 07:00 0 85,6 0 0,3 216 0,6 1017,2
24 Contra Coronel 06-09-2026 06:45 -0,4 86,4 0 0 272 0,6 1017,5
23 Contra Coronel 06-09-2026 06:30 0,3 82,5 0 0 275 0,6 1017,5
22 Contra Coronel 06-09-2026 06:15 -0,1 81,3 0 0 253 0,6 1017,7
21 Contra Coronel 06-09-2026 06:00 0,8 80,3 0 0 222 0,6 1017,8
20 Contra Coronel 06-09-2026 05:45 0,9 80,7 0 0 178 0,6 1018
19 Contra Coronel 06-09-2026 05:30 0,6 81,5 0 0 240 0,6 1018,1
18 Contra Coronel 06-09-2026 05:15 0,6 79,9 0 0 197 0,6 1018,4
17 Contra Coronel 06-09-2026 05:00 1,4 77,5 0 0 251 0,6 1018,7
16 Contra Coronel 06-09-2026 04:45 1,9 75,3 0 0,3 204 0,6 1018,8
15 Contra Coronel 06-09-2026 04:30 2,1 74,5 0 0,3 205 0,6 1018,9
14 Contra Coronel 06-09-2026 04:15 1,6 78,6 0 0,7 184 0,6 1019,3
13 Contra Coronel 06-09-2026 04:00 1,8 76,2 0 0 267 0,6 1019,6
12 Contra Coronel 06-09-2026 03:45 1,9 74,1 0 0,3 279 0,6 1019,9
11 Contra Coronel 06-09-2026 03:30 2,6 71 0 0,3 197 0,6 1020,2
10 Contra Coronel 06-09-2026 03:15 2,4 72 0 0,3 246 0,6 1020,5
9 Contra Coronel 06-09-2026 03:00 3 71,2 0 0,7 160 0,6 1020,6
8 Contra Coronel 06-09-2026 02:45 2,4 73,4 0 1,3 319 0,6 1021,2
7 Contra Coronel 06-09-2026 02:30 3,8 67 0 1,7 163 0,6 1021,1
6 Contra Coronel 06-09-2026 02:15 3,4 65,9 0 0,3 261 0,6 1021,3
5 Contra Coronel 06-09-2026 02:00 3,2 63,9 0 0,7 184 0,6 1021,6
4 Contra Coronel 06-09-2026 01:45 3,8 62,1 0 0,7 188 0,6 1021,7
3 Contra Coronel 06-09-2026 01:30 4,3 58,9 0 0,3 229 0,6 1021,9
2 Contra Coronel 06-09-2026 01:15 6,7 45 0 2 133 0,6 1021,9
1 Contra Coronel 06-09-2026 01:00 6,9 46,7 0 2 139 0,6 1022